Weather History for Orangeburg, SC

Change the Weather History Date:

Saturday, October 11, 2014

  Actual Average Record
Temperature  
Mean Temperature 78 °F 67 °F  
Max Temperature 90 °F 78 °F 90 °F (1958)
Min Temperature 66 °F 56 °F 37 °F (2000)
Degree Days  
Heating Degree Days 0 2  
Month to date heating degree days 14 13  
Since 1 July heating degree days 18 17  
Cooling Degree Days 13 3  
Month to date cooling degree days 67 52  
Year to date cooling degree days 2189 2046  
Growing Degree Days 28 (Base 50)    
Moisture  
Dew Point 66 °F    
Average Humidity 79    
Maximum Humidity 93    
Minimum Humidity 41    
Precipitation  
Precipitation 0.00 in 0.12 in 2.04 in (1990)
Month to date precipitation 0.30 1.56  
Year to date precipitation 39.18 38.66  
Sea Level Pressure  
Sea Level Pressure 30.02 in    
Wind  
Wind Speed 6 mph (SW)    
Max Wind Speed 17 mph    
Max Gust Speed 24 mph    
Visibility 6 miles    
Events Fog    
T = Trace of Precipitation, MM = Missing Value Source: NWS Daily Summary

Daily Weather History Graph

Daily Weather History Graph

Search for Another Location

Airport:

Trip Planner

Search our weather history database for the weather conditions in past years. The results will help you decide how hot, cold, wet, or windy it might be!

Date:

Astronomy

Oct. 11, 2014 Rise Set
Actual Time 7:25 AM EDT 6:54 PM EDT
Civil Twilight 7:00 AM EDT 7:19 PM EDT
Nautical Twilight 6:31 AM EDT 7:48 PM EDT
Astronomical Twilight 6:02 AM EDT 8:17 PM EDT
Moon 9:29 PM EDT (10/11) 10:39 AM EDT (10/11)
Length of Visible Light 12h 19m
Length of Day
11h 29m
Waning Gibbous, 87% of the Moon is Illuminated
Oct 11
Waning Gibbous
Oct 15
Last Quarter
Oct 23
New
Oct 30
First Quarter
Nov 6
Full

Hourly Weather History & Observations

Time (EDT) Temp. Heat Index Dew Point Humidity Pressure Visibility Wind Dir Wind Speed Gust Speed Precip Events Conditions
12:53 AM 70.0 °F - 66.9 °F 90% 30.03 in 10.0 mi South 4.6 mph - N/A   Clear
1:53 AM 69.1 °F - 66.0 °F 90% 30.02 in 10.0 mi South 3.5 mph - N/A   Clear
2:53 AM 69.1 °F - 66.0 °F 90% 30.02 in 10.0 mi South 4.6 mph - N/A   Clear
3:53 AM 68.0 °F - 66.0 °F 93% 30.01 in 8.0 mi South 4.6 mph - N/A   Clear
4:33 AM 66.9 °F - 64.9 °F 93% 30.03 in 1.8 mi Calm Calm - N/A   Clear
4:36 AM 68.0 °F - 66.0 °F 93% 30.03 in 1.5 mi Calm Calm - N/A   Partly Cloudy
4:53 AM 68.0 °F - 64.9 °F 90% 30.02 in 0.8 mi Calm Calm - N/A   Scattered Clouds
4:57 AM 66.9 °F - 66.0 °F 97% 30.02 in 0.8 mi Calm Calm - N/A   Mist
5:53 AM 66.9 °F - 64.9 °F 93% 30.03 in 0.5 mi South 3.5 mph - N/A Fog Fog
6:07 AM 66.9 °F - 64.9 °F 93% 30.04 in 2.0 mi South 3.5 mph - N/A   Overcast
6:14 AM 66.0 °F - 64.9 °F 96% 30.04 in 1.5 mi Calm Calm - N/A   Overcast
6:24 AM 66.9 °F - 64.9 °F 93% 30.04 in 0.2 mi SSW 3.5 mph - N/A Fog Fog
6:53 AM 66.0 °F - 64.9 °F 96% 30.04 in 0.2 mi SW 3.5 mph - N/A Fog Fog
7:53 AM 66.0 °F - 64.9 °F 96% 30.05 in 1.0 mi SSW 3.5 mph - N/A   Overcast
8:00 AM 66.9 °F - 64.9 °F 93% 30.06 in 0.2 mi SSW 3.5 mph - N/A Fog Fog
8:53 AM 69.1 °F - 66.9 °F 93% 30.06 in 1.0 mi SW 5.8 mph - N/A   Mist
8:56 AM 69.1 °F - 66.9 °F 93% 30.06 in 2.0 mi SW 6.9 mph - N/A   Mostly Cloudy
9:03 AM 69.1 °F - 68.0 °F 96% 30.06 in 6.0 mi SW 6.9 mph - N/A   Scattered Clouds
9:53 AM 75.0 °F - 69.1 °F 82% 30.06 in 10.0 mi SW 9.2 mph - N/A   Clear
10:53 AM 80.1 °F 82.7 °F 68.0 °F 67% 30.06 in 10.0 mi WSW 8.1 mph - N/A   Clear
11:53 AM 84.9 °F 87.1 °F 66.0 °F 53% 30.05 in 10.0 mi West 17.3 mph 23.0 mph N/A   Clear
12:53 PM 86.0 °F 88.2 °F 66.0 °F 51% 30.03 in 10.0 mi WSW 12.7 mph - N/A   Partly Cloudy
1:53 PM 87.1 °F 88.9 °F 64.9 °F 48% 30.00 in 10.0 mi WSW 10.4 mph - N/A   Clear
2:53 PM 89.1 °F 90.3 °F 64.0 °F 43% 29.98 in 10.0 mi West 9.2 mph - N/A   Partly Cloudy
3:53 PM 89.1 °F 90.3 °F 64.0 °F 43% 29.96 in 10.0 mi WSW 11.5 mph - N/A   Clear
4:53 PM 89.1 °F 90.0 °F 63.0 °F 42% 29.96 in 10.0 mi West 10.4 mph - N/A   Clear
5:53 PM 87.1 °F 87.8 °F 63.0 °F 44% 29.96 in 10.0 mi SW 9.2 mph - N/A   Clear
6:53 PM 81.0 °F 83.0 °F 66.0 °F 60% 29.96 in 10.0 mi Calm Calm - N/A   Clear
7:53 PM 75.9 °F - 66.9 °F 74% 29.98 in 10.0 mi Calm Calm - N/A   Clear
8:53 PM 73.9 °F - 68.0 °F 82% 29.99 in 10.0 mi Calm Calm - N/A   Mostly Cloudy
9:53 PM 73.9 °F - 66.9 °F 79% 30.00 in 10.0 mi Calm Calm - N/A   Mostly Cloudy
10:53 PM 71.1 °F - 66.9 °F 87% 30.01 in 10.0 mi SW 3.5 mph - N/A   Clear
11:53 PM 72.0 °F - 66.0 °F 81% 30.02 in 10.0 mi South 4.6 mph - N/A   Clear